Starlink 34477

operational
NORAD ID: 64487 Int'l Des: 2025-133 Owner: SPXS Country: US Constellation: starlink
LEOCIRCULAR

About Starlink 34477

Description loading...

Live Position

Loading 3D Globe...

Upcoming Passes

Altitude History

Altitude vs Time

uPlot chart will show altitude changes over time

Two-Line Element Set

1 64487U 25133R 26049.60321460 .00028004 00000-0 95360-3 0 9996
2 64487 53.1581 205.6285 0001056 105.5102 254.6016 15.30215673 38253
Epoch: Feb 18, 2026 • Age: 10 hours

Current Status

Altitude 479.8 km
Velocity 7.63 km/s
Sub-Earth Point 47.52°N, 106.66°E
Launch Date Jun 23, 2025
Age 0.6 years
Type internet

Technical Details

Classification Payload
Mass 575.00 kg
Dry Mass 530.00 kg
Total Mass 575.00 kg
Length 0.30 m
Diameter 4.10 m
Span 29.00 m
Shape Box + pan
Manufacturer SPXS
Bus Type Starlink V2MO
Phase Status In Orbit
Owner/State SPXS/US

Large Constellations

Loading constellations...